Regional Weather Roundup
Issued by NWS

Home | Current Version | Previous Version | Graphics & Text | Print | Product List | Glossary On
Versions: 1 2 3 4 5 6 7 8 9 10 11 12 13 14 15 16 17 18 19 20 21 22 23 24 25 26 27 28 29 30 31 32 33 34 35 36 37 38 39 40 41 42 43 44 45 46 47 48 49 50
000
ASUS43 KIND 301759
RWRIN

WEATHER ROUNDUP FOR INDIANA
NATIONAL WEATHER SERVICE INDIANAPOLIS IN
100 PM EST FRI JAN 30 2015

NOTE: "FAIR" INDICATES FEW OR NO CLOUDS BELOW 12,000 FEET WITH NO
SIGNIFICANT WEATHER AND/OR OBSTRUCTIONS TO VISIBILITY.

* - STATION DOES NOT REPORT WEATHER SUCH AS PRECIPITATION OR FOG.

+ - STATION NOT QUALITY CONTROLLED BY THE NATIONAL WEATHER SERVICE.
    USE DATA WITH CAUTION...ESPECIALLY DEWPOINT AND RELATIVE
    HUMIDITY OBSERVATIONS.

INZ001>003-010>013-019-020-301900-
NORTHWEST INDIANA

CITY           SKY/WX    TMP DP  RH WIND       PRES   REMARKS
GARY /AIRPORT/ MOSUNNY   30  14  51 N12       30.53F WCI  21
VALPARAISO     NOT AVBL

$$

LMZ046-743>745-301900-
SOUTHERN LAKE MICHIGAN

STATION/POSITION TIME  TEMP WIND        PRES
                       AIR  DIR/SP/G
                 (UTC) (F)  (DEG/KT/KT) (MB)
MICHIGAN CITY    1700   25  350/ 14/ 17   N/A

$$

INZ004-005-014>016-021>024-301900-
NORTH CENTRAL INDIANA

CITY           SKY/WX    TMP DP  RH WIND       PRES   REMARKS
ELKHART        CLOUDY    25  10  54 NW6       30.48F WCI  18
GOSHEN         CLOUDY    24  13  62 N12       30.47S WCI  13
6HR MIN TEMP:  22; 6HR MAX TEMP:  25;

SOUTH BEND     CLOUDY    25  15  66 N6        30.48F WCI  18
6HR MIN TEMP:  24; 6HR MAX TEMP:  26; 6HR PCP: TRACE;


$$

INZ006>009-017-018-025>027-301900-
NORTHEAST INDIANA

CITY           SKY/WX    TMP DP  RH WIND       PRES   REMARKS
ANGOLA *+      PTSUNNY   21  10  63 N6        30.44S WCI  14
FORT WAYNE     PTSUNNY   25  12  58 NW12      30.46F WCI  14
6HR MIN TEMP:  20; 6HR MAX TEMP:  25; 6HR PCP: TRACE;


$$

INZ028-029-035-036-043>045-051>053-301900-
WEST CENTRAL INDIANA

CITY           SKY/WX    TMP DP  RH WIND       PRES   REMARKS
GREENCASTLE +  MOSUNNY   32  10  40 N8        30.49F WCI  25
LAFAYETTE      CLOUDY    28  15  58 N10       30.50F WCI  19
6HR MIN TEMP:  24; 6HR MAX TEMP:  29;

TERRE HAUTE    SUNNY     33  14  45 NW3       30.51F
6HR MIN TEMP:  29; 6HR MAX TEMP:  33;


$$

INZ030>032-037>040-046>048-054>057-064-065-301900-
CENTRAL INDIANA

CITY           SKY/WX    TMP DP  RH WIND       PRES   REMARKS
ANDERSON       CLOUDY    27  14  59 N17G29    30.48  WCI  14
COLUMBUS       PTSUNNY   30  12  47 N12       30.48F WCI  21
INDIANAPOLIS   PTSUNNY   27  14  58 N10       30.48F WCI  17
6HR MIN TEMP:  24; 6HR MAX TEMP:  27; 6HR PCP: TRACE;

-EAGLE CREEK   CLOUDY    29  15  56 N12       30.47F WCI  19
6HR MIN TEMP:  26; 6HR MAX TEMP:  30;

KOKOMO *+      CLOUDY    27  16  63 N9        30.47F WCI  17
6HR MIN TEMP:  25; 6HR MAX TEMP:  28;

MT COMFORT *+  CLOUDY    28   7  40 N12G18    30.48S WCI  18
SHELBYVILLE    CLOUDY    31  17  56 N14       30.47F WCI  21
6HR MIN TEMP:  28; 6HR MAX TEMP:  32;


$$

INZ033-034-041-042-049-050-058-059-301900-
EAST CENTRAL INDIANA

CITY           SKY/WX    TMP DP  RH WIND       PRES   REMARKS
MUNCIE         CLOUDY    26  15  63 N14       30.46F WCI  14
6HR MIN TEMP:  24; 6HR MAX TEMP:  26; 6HR PCP: TRACE;


$$

INZ060-061-067>069-081>083-085>088-301900-
SOUTHWEST INDIANA

CITY           SKY/WX    TMP DP  RH WIND       PRES   REMARKS
EVANSVILLE     MOSUNNY   38  21  50 N10       30.51F
6HR MIN TEMP:  33; 6HR MAX TEMP:  39;

HUNTINGBURG *+ MOSUNNY   37  19  48 NW10      30.50F
6HR MIN TEMP:  30; 6HR MAX TEMP:  37;


$$

INZ062-063-066-070>080-084-089>092-301900-
SOUTH CENTRAL AND SOUTHEAST INDIANA

CITY           SKY/WX    TMP DP  RH WIND       PRES   REMARKS
BLOOMINGTON    SUNNY     34  15  46 N9        30.47F WCI  27
6HR MIN TEMP:  29; 6HR MAX TEMP:  34; 6HR PCP: TRACE;

SEYMOUR +      MOSUNNY   36  18  48 NW6       30.48F

$$



USA.gov is the U.S. government's official web portal to all federal, state and local government web resources and services.